Time,TemperatureF,DewpointF,PressureIn,WindDirection,WindDirectionDegrees,WindSpeedMPH,WindSpeedGustMPH,Humidity,HourlyPrecipIn,Conditions,Clouds,dailyrainin,SoftwareType,DateUTC
2013-06-24 00:02:00,70.0,67.0,30.14,WSW,258,0.0,-999.0,89,-99.99,,,-99.99,,2013-06-24 04:02:00,
2013-06-24 00:12:00,69.0,66.0,30.14,WSW,258,0.0,-999.0,89,-99.99,,,-99.99,,2013-06-24 04:12:00,
2013-06-24 00:22:00,69.0,66.0,30.14,WSW,258,0.0,-999.0,89,-99.99,,,-99.99,,2013-06-24 04:22:00,
2013-06-24 00:33:00,69.0,66.0,30.14,WSW,258,0.0,-999.0,91,-99.99,,,-99.99,,2013-06-24 04:33:00,
2013-06-24 00:43:00,69.0,66.0,30.14,WSW,258,0.0,-999.0,91,-99.99,,,-99.99,,2013-06-24 04:43:00,
2013-06-24 00:53:00,69.0,66.0,30.15,WSW,258,0.0,-999.0,91,-99.99,,,-99.99,,2013-06-24 04:53:00,
2013-06-24 01:02:00,69.0,67.0,30.14,WSW,258,0.0,-999.0,92,-99.99,,,-99.99,,2013-06-24 05:02:00,
2013-06-24 01:12:00,69.0,67.0,30.14,WSW,258,0.0,-999.0,92,-99.99,,,-99.99,,2013-06-24 05:12:00,
2013-06-24 01:22:00,68.0,66.0,30.14,WSW,258,0.0,-999.0,92,-99.99,,,-99.99,,2013-06-24 05:22:00,
2013-06-24 01:36:00,68.0,66.0,30.14,WSW,258,0.0,-999.0,92,-99.99,,,-99.99,,2013-06-24 05:36:00,
2013-06-24 01:46:00,68.0,66.0,30.14,WSW,258,0.0,-999.0,92,-99.99,,,-99.99,,2013-06-24 05:46:00,
2013-06-24 02:08:00,68.0,66.0,30.13,WSW,258,0.0,-999.0,92,-99.99,,,-99.99,,2013-06-24 06:08:00,
2013-06-24 02:15:00,68.0,66.0,30.13,WSW,258,0.0,-999.0,92,-99.99,,,-99.99,,2013-06-24 06:15:00,
2013-06-24 02:37:00,68.0,66.0,30.12,WSW,258,0.0,-999.0,93,-99.99,,,-99.99,,2013-06-24 06:37:00,
2013-06-24 02:44:00,67.0,65.0,30.12,WSW,258,0.0,-999.0,93,-99.99,,,-99.99,,2013-06-24 06:44:00,
2013-06-24 02:57:00,67.0,65.0,30.12,WSW,258,0.0,-999.0,93,-99.99,,,-99.99,,2013-06-24 06:57:00,
2013-06-24 03:05:00,67.0,65.0,30.12,WSW,258,0.0,-999.0,93,-99.99,,,-99.99,,2013-06-24 07:05:00,
2013-06-24 03:14:00,67.0,65.0,30.12,WSW,258,0.0,-999.0,93,-99.99,,,-99.99,,2013-06-24 07:14:00,
2013-06-24 03:37:00,67.0,65.0,30.11,WSW,258,0.0,-999.0,94,-99.99,,,-99.99,,2013-06-24 07:37:00,
2013-06-24 03:47:00,66.0,64.0,30.11,WSW,258,0.0,-999.0,94,-99.99,,,-99.99,,2013-06-24 07:47:00,
2013-06-24 04:04:00,66.0,64.0,30.12,WSW,258,0.0,-999.0,94,-99.99,,,-99.99,,2013-06-24 08:04:00,
2013-06-24 04:14:00,66.0,64.0,30.12,WSW,258,0.0,-999.0,94,-99.99,,,-99.99,,2013-06-24 08:14:00,
2013-06-24 04:35:00,66.0,64.0,30.12,WSW,258,0.0,-999.0,94,-99.99,,,-99.99,,2013-06-24 08:35:00,
2013-06-24 04:46:00,66.0,64.0,30.12,WSW,258,0.0,-999.0,94,-99.99,,,-99.99,,2013-06-24 08:46:00,
2013-06-24 05:06:00,66.0,64.0,30.12,WSW,258,0.0,-999.0,94,-99.99,,,-99.99,,2013-06-24 09:06:00,
2013-06-24 05:15:00,66.0,64.0,30.12,WSW,258,0.0,-999.0,94,-99.99,,,-99.99,,2013-06-24 09:15:00,
2013-06-24 05:37:00,65.0,63.0,30.12,WSW,258,0.0,-999.0,94,-99.99,,,-99.99,,2013-06-24 09:37:00,
2013-06-24 05:47:00,65.0,64.0,30.12,WSW,258,0.0,-999.0,95,-99.99,,,-99.99,,2013-06-24 09:47:00,
2013-06-24 06:05:00,65.0,64.0,30.12,WSW,258,0.0,-999.0,95,-99.99,,,-99.99,,2013-06-24 10:05:00,
2013-06-24 06:14:00,65.0,64.0,30.12,WSW,258,0.0,-999.0,95,-99.99,,,-99.99,,2013-06-24 10:14:00,
2013-06-24 06:37:00,65.0,64.0,30.13,WSW,258,0.0,-999.0,95,-99.99,,,-99.99,,2013-06-24 10:37:00,
2013-06-24 06:49:00,66.0,65.0,30.14,WSW,258,0.0,-999.0,95,-99.99,,,-99.99,,2013-06-24 10:49:00,
2013-06-24 06:58:00,66.0,65.0,30.14,WSW,258,0.0,-999.0,95,-99.99,,,-99.99,,2013-06-24 10:58:00,
2013-06-24 07:34:00,66.0,65.0,30.15,WSW,258,0.0,-999.0,95,-99.99,,,-99.99,,2013-06-24 11:34:00,
2013-06-24 07:46:00,67.0,66.0,30.15,WSW,258,0.0,-999.0,95,-99.99,,,-99.99,,2013-06-24 11:46:00,
2013-06-24 07:58:00,67.0,66.0,30.15,WSW,258,0.0,-999.0,95,-99.99,,,-99.99,,2013-06-24 11:58:00,
2013-06-24 08:05:00,69.0,68.0,30.16,WSW,258,0.0,-999.0,96,-99.99,,,-99.99,,2013-06-24 12:05:00,
2013-06-24 08:16:00,69.0,68.0,30.16,WSW,258,0.0,-999.0,96,-99.99,,,-99.99,,2013-06-24 12:16:00,
2013-06-24 08:24:00,69.0,68.0,30.16,WSW,258,0.0,-999.0,95,-99.99,,,-99.99,,2013-06-24 12:24:00,
2013-06-24 08:36:00,71.0,69.0,30.16,WSW,258,0.0,-999.0,93,-99.99,,,-99.99,,2013-06-24 12:36:00,
2013-06-24 08:48:00,73.0,70.0,30.17,WSW,258,0.0,-999.0,90,-99.99,,,-99.99,,2013-06-24 12:48:00,
2013-06-24 08:55:00,73.0,70.0,30.17,WSW,258,0.0,-999.0,90,-99.99,,,-99.99,,2013-06-24 12:55:00,
2013-06-24 09:06:00,75.0,71.0,30.17,WSW,254,0.0,-999.0,87,-99.99,,,-99.99,,2013-06-24 13:06:00,
2013-06-24 09:57:00,79.0,72.0,30.17,WSW,253,2.0,-999.0,78,-99.99,,,-99.99,,2013-06-24 13:57:00,
2013-06-24 10:03:00,80.0,71.0,30.18,WSW,246,2.0,-999.0,74,-99.99,,,-99.99,,2013-06-24 14:03:00,
2013-06-24 10:16:00,80.0,71.0,30.18,WSW,246,2.0,-999.0,74,-99.99,,,-99.99,,2013-06-24 14:16:00,
2013-06-24 10:24:00,81.0,71.0,30.18,West,264,5.0,-999.0,72,-99.99,,,-99.99,,2013-06-24 14:24:00,
2013-06-24 10:45:00,82.0,72.0,30.18,SW,215,4.0,-999.0,73,-99.99,,,-99.99,,2013-06-24 14:45:00,
2013-06-24 10:59:00,82.0,72.0,30.18,SW,215,4.0,-999.0,73,-99.99,,,-99.99,,2013-06-24 14:59:00,
2013-06-24 11:27:00,83.0,73.0,30.18,WSW,246,6.0,-999.0,72,-99.99,,,-99.99,,2013-06-24 15:27:00,
2013-06-24 11:36:00,83.0,72.0,30.18,WNW,289,6.0,-999.0,70,-99.99,,,-99.99,,2013-06-24 15:36:00,
2013-06-24 11:54:00,83.0,72.0,30.17,WSW,240,6.0,-999.0,69,-99.99,,,-99.99,,2013-06-24 15:54:00,
2013-06-24 12:15:00,84.0,71.0,30.16,West,277,6.0,-999.0,65,-99.99,,,-99.99,,2013-06-24 16:15:00,
2013-06-24 12:24:00,84.0,73.0,30.16,WSW,252,4.0,-999.0,69,-99.99,,,-99.99,,2013-06-24 16:24:00,
2013-06-24 12:36:00,85.0,73.0,30.16,WNW,294,4.0,-999.0,67,-99.99,,,-99.99,,2013-06-24 16:36:00,
2013-06-24 12:56:00,85.0,72.0,30.16,SSW,198,4.0,-999.0,65,-99.99,,,-99.99,,2013-06-24 16:56:00,
2013-06-24 13:14:00,85.0,70.0,30.15,WNW,300,5.0,-999.0,62,-99.99,,,-99.99,,2013-06-24 17:14:00,
2013-06-24 13:25:00,84.0,70.0,30.15,WSW,257,4.0,-999.0,63,-99.99,,,-99.99,,2013-06-24 17:25:00,
2013-06-24 13:46:00,86.0,71.0,30.14,WSW,254,5.0,-999.0,61,-99.99,,,-99.99,,2013-06-24 17:46:00,
2013-06-24 13:57:00,86.0,71.0,30.14,WSW,254,5.0,-999.0,61,-99.99,,,-99.99,,2013-06-24 17:57:00,
2013-06-24 14:02:00,86.0,68.0,30.14,West,279,4.0,-999.0,56,-99.99,,,-99.99,,2013-06-24 18:02:00,
2013-06-24 14:14:00,86.0,68.0,30.14,West,279,4.0,-999.0,56,-99.99,,,-99.99,,2013-06-24 18:14:00,
2013-06-24 14:25:00,86.0,71.0,30.14,West,279,1.0,-999.0,61,-99.99,,,-99.99,,2013-06-24 18:25:00,
2013-06-24 14:36:00,86.0,69.0,30.12,West,267,2.0,-999.0,58,-99.99,,,-99.99,,2013-06-24 18:36:00,
2013-06-24 14:46:00,86.0,69.0,30.12,West,267,2.0,-999.0,58,-99.99,,,-99.99,,2013-06-24 18:46:00,
2013-06-24 14:55:00,86.0,69.0,30.12,West,267,2.0,-999.0,58,-99.99,,,-99.99,,2013-06-24 18:55:00,
2013-06-24 15:06:00,82.0,71.0,30.11,NE,54,3.0,-999.0,69,-99.99,,,-99.99,,2013-06-24 19:06:00,
2013-06-24 15:13:00,82.0,71.0,30.11,NE,54,3.0,-999.0,69,-99.99,,,-99.99,,2013-06-24 19:13:00,
2013-06-24 15:25:00,81.0,70.0,30.11,NE,53,1.0,-999.0,69,-99.99,,,-99.99,,2013-06-24 19:25:00,
2013-06-24 15:37:00,82.0,71.0,30.10,North,351,1.0,-999.0,69,-99.99,,,-99.99,,2013-06-24 19:37:00,
2013-06-24 15:45:00,82.0,71.0,30.10,North,351,1.0,-999.0,69,-99.99,,,-99.99,,2013-06-24 19:45:00,
2013-06-24 15:57:00,84.0,73.0,30.10,NNE,14,2.0,-999.0,69,-99.99,,,-99.99,,2013-06-24 19:57:00,
2013-06-24 16:05:00,85.0,72.0,30.09,ENE,69,1.0,-999.0,65,-99.99,,,-99.99,,2013-06-24 20:05:00,
2013-06-24 16:12:00,85.0,72.0,30.09,ENE,69,1.0,-999.0,65,-99.99,,,-99.99,,2013-06-24 20:12:00,
2013-06-24 18:36:00,73.0,71.0,30.09,SE,132,0.0,-999.0,92,-99.99,,,-99.99,,2013-06-24 22:36:00,
2013-06-24 18:47:00,74.0,70.0,30.08,SE,146,0.0,-999.0,87,-99.99,,,-99.99,,2013-06-24 22:47:00,
2013-06-24 18:56:00,74.0,70.0,30.08,SE,146,0.0,-999.0,87,-99.99,,,-99.99,,2013-06-24 22:56:00,
2013-06-24 19:05:00,76.0,72.0,30.08,SE,146,0.0,-999.0,86,-99.99,,,-99.99,,2013-06-24 23:05:00,
2013-06-24 19:14:00,76.0,72.0,30.08,SE,146,0.0,-999.0,86,-99.99,,,-99.99,,2013-06-24 23:14:00,
2013-06-24 19:27:00,76.0,71.0,30.09,SE,146,0.0,-999.0,84,-99.99,,,-99.99,,2013-06-24 23:27:00,
2013-06-24 19:35:00,76.0,71.0,30.10,East,93,0.0,-999.0,84,-99.99,,,-99.99,,2013-06-24 23:35:00,
2013-06-24 19:45:00,77.0,72.0,30.09,East,93,0.0,-999.0,84,-99.99,,,-99.99,,2013-06-24 23:45:00,
2013-06-24 19:56:00,77.0,72.0,30.09,East,93,0.0,-999.0,84,-99.99,,,-99.99,,2013-06-24 23:56:00,
2013-06-24 20:05:00,76.0,70.0,30.09,East,93,0.0,-999.0,83,-99.99,,,-99.99,,2013-06-25 00:05:00,
2013-06-24 20:12:00,76.0,70.0,30.09,East,93,0.0,-999.0,83,-99.99,,,-99.99,,2013-06-25 00:12:00,
2013-06-24 20:24:00,76.0,71.0,30.09,East,93,0.0,-999.0,85,-99.99,,,-99.99,,2013-06-25 00:24:00,
2013-06-24 20:34:00,75.0,71.0,30.08,East,93,0.0,-999.0,88,-99.99,,,-99.99,,2013-06-25 00:34:00,
2013-06-24 20:56:00,75.0,72.0,30.09,East,93,0.0,-999.0,89,-99.99,,,-99.99,,2013-06-25 00:56:00,
2013-06-24 21:04:00,74.0,71.0,30.09,East,93,0.0,-999.0,90,-99.99,,,-99.99,,2013-06-25 01:04:00,
2013-06-24 21:16:00,74.0,71.0,30.09,East,93,0.0,-999.0,90,-99.99,,,-99.99,,2013-06-25 01:16:00,
2013-06-24 21:24:00,74.0,71.0,30.09,East,93,0.0,-999.0,90,-99.99,,,-99.99,,2013-06-25 01:24:00,
2013-06-24 21:37:00,73.0,70.0,30.10,East,93,0.0,-999.0,91,-99.99,,,-99.99,,2013-06-25 01:37:00,
2013-06-24 21:44:00,73.0,70.0,30.10,East,93,0.0,-999.0,91,-99.99,,,-99.99,,2013-06-25 01:44:00,
2013-06-24 21:57:00,73.0,71.0,30.10,East,93,0.0,-999.0,92,-99.99,,,-99.99,,2013-06-25 01:57:00,
2013-06-24 22:05:00,73.0,71.0,30.10,East,93,0.0,-999.0,92,-99.99,,,-99.99,,2013-06-25 02:05:00,
2013-06-24 22:16:00,73.0,71.0,30.10,East,93,0.0,-999.0,92,-99.99,,,-99.99,,2013-06-25 02:16:00,
2013-06-24 22:45:00,72.0,70.0,30.11,East,93,0.0,-999.0,93,-99.99,,,-99.99,,2013-06-25 02:45:00,
2013-06-24 22:57:00,72.0,70.0,30.11,East,93,0.0,-999.0,93,-99.99,,,-99.99,,2013-06-25 02:57:00,
2013-06-24 23:07:00,72.0,70.0,30.11,East,93,0.0,-999.0,93,-99.99,,,-99.99,,2013-06-25 03:07:00,
2013-06-24 23:52:00,71.0,69.0,30.12,East,93,0.0,-999.0,94,-99.99,,,-99.99,,2013-06-25 03:52:00,